User: anonymous   Login
Location: Makanda
(37.6176°N, 89.2090°W)
Time: 19:12:35
(UTC+00:00)
Language:

Cosmos 1092 Rocket - Orbit

View from above orbital plane
View from above orbital plane
View from above satellite
View from above satellite

Ground track
Ground track

The orbit data is extracted from the following two-line orbital elements,

1 11327U 79030B   19323.65151049 -.00000020  00000-0 -35145-4 0  9998
2 11327  82.9498 358.4210 0026920 218.6461 259.4470 13.76954983 40994
Epoch (UTC): 19 November 2019 15:38:10
Eccentricity: 0.0026920
inclination: 82.9498°
perigee height: 955 km
apogee height: 994 km
right ascension of ascending node: 358.4210°
argument of perigee: 218.6461°
revolutions per day: 13.76954983
mean anomaly at epoch: 259.4470°
orbit number at epoch: 4099

The dashed part of the orbit path shows where the satellite is in the earth's shadow,  

DLR